Погода в Фейра-ди-Сантана

Бразилия     12°15′01″S   38°57′35″W
темп.,
°C
ветер,
м/с
пор.,
м/с
влажн.,
%
обл.,
%
осадки,
мм/ч
давл.,
гПа
погр.,
м
27 февраля, сб
сб2700:00+24вюв378020 0.0 1013452
03:00+23вюв248547 0.0 1012189
06:00+22в1288100 0.0 1013122
09:00+28вюв2460100 0.4 10141030
12:00+31в455285 2.8 10121372
15:00+31юв464949 7.9 10091532
18:00+26юв596839 1.8 1010795
21:00+24вюв498140 1.8 1012699
28 февраля, вс
вс2800:00+23юв268826 0.0 1012383
03:00+22юв258835 0.0 1011262
06:00+22юв128988 0.0 101294
09:00+28вюв235990 0.2 10131099
12:00+32вюв344184 0.0 10111831
15:00+32вюв454568 0.1 10081620
18:00+27ююв586367 0.0 1009776
21:00+25вюв487183 0.0 1011646
1 марта, пн
пн100:00+24вюв278069 0.0 1011489
03:00+23вюв138673 0.0 1009148
06:00+22ююв128813 0.0 1011112
09:00+29юв24538 0.0 10121194
12:00+31вюв455296 0.8 10111272
15:00+28юв686697 5.9 10091122
18:00+25юв51078100 0.9 1010874
21:00+24вюв498182 1.1 1012825
2 марта, вт
вт200:00+23вюв388349 0.1 1012604
03:00+22юв288330 0.2 1011409
06:00+22вюв25843 0.0 1013205
09:00+28вюв35562 0.0 10141159
12:00+31юв454515 0.0 10131708
15:00+30юв564752 0.1 10101765
18:00+26юв594927 0.0 1012832
21:00+24вюв496814 0.0 1014771
3 марта, ср
ср300:00+22вюв387814 0.0 1015515
03:00+21юв128511 0.0 101492
06:00+21ююз11892 0.0 101566
09:00+26юв246227 0.0 1017968
12:00+29юв344895 0.0 10151155
15:00+30юв454686 0.0 10121307
18:00+26юв48665 0.0 1013785
21:00+24вюв48776 0.0 1015622